TimeCDT,TemperatureF,Dew PointF,Humidity,Sea Level PressureIn,VisibilityMPH,Wind Direction,Wind SpeedMPH,Gust SpeedMPH,PrecipitationIn,Events,Conditions,WindDirDegrees,DateUTC
12:15 AM,77.5,74.3,90,30.14,10.0,Calm,Calm,-,N/A,,Scattered Clouds,0,2013-07-18 05:15:00
12:35 AM,77.4,74.1,90,30.14,10.0,NNW,3.5,-,N/A,,Scattered Clouds,340,2013-07-18 05:35:00
12:55 AM,77.0,73.9,90,30.14,10.0,Calm,Calm,-,0.01,,Scattered Clouds,0,2013-07-18 05:55:00
1:15 AM,77.2,73.9,90,30.14,10.0,Calm,Calm,-,N/A,,Clear,0,2013-07-18 06:15:00
1:35 AM,77.4,74.3,90,30.14,10.0,Calm,Calm,-,N/A,,Clear,0,2013-07-18 06:35:00
1:55 AM,77.2,73.9,90,30.14,10.0,Calm,Calm,-,0.01,,Clear,0,2013-07-18 06:55:00
2:15 AM,77.0,73.8,90,30.13,10.0,Calm,Calm,-,N/A,,Clear,0,2013-07-18 07:15:00
2:35 AM,77.0,73.8,90,30.13,10.0,Calm,Calm,-,N/A,,Clear,0,2013-07-18 07:35:00
2:55 AM,77.0,73.6,89,30.13,10.0,Calm,Calm,-,0.01,,Clear,0,2013-07-18 07:55:00
3:15 AM,77.0,73.6,89,30.12,10.0,Calm,Calm,-,N/A,,Clear,0,2013-07-18 08:15:00
3:35 AM,77.0,73.6,89,30.12,10.0,Calm,Calm,-,N/A,,Clear,0,2013-07-18 08:35:00
3:55 AM,77.0,73.4,89,30.12,10.0,Calm,Calm,-,N/A,,Clear,0,2013-07-18 08:55:00
4:15 AM,77.0,73.4,89,30.12,10.0,Calm,Calm,-,0.01,,Clear,0,2013-07-18 09:15:00
4:35 AM,77.0,73.4,89,30.12,10.0,Calm,Calm,-,0.01,,Clear,0,2013-07-18 09:35:00
4:55 AM,76.8,73.4,89,30.12,10.0,Calm,Calm,-,0.01,,Scattered Clouds,0,2013-07-18 09:55:00
5:15 AM,76.6,73.0,89,30.11,10.0,Calm,Calm,-,N/A,,Clear,0,2013-07-18 10:15:00
5:35 AM,76.3,72.9,89,30.11,10.0,Calm,Calm,-,0.01,,Clear,0,2013-07-18 10:35:00
5:55 AM,76.3,72.9,89,30.11,10.0,Calm,Calm,-,0.01,,Clear,0,2013-07-18 10:55:00
6:15 AM,76.1,72.7,89,30.11,10.0,Calm,Calm,-,N/A,,Clear,0,2013-07-18 11:15:00
6:35 AM,75.6,72.5,90,30.12,10.0,Calm,Calm,-,N/A,,Clear,0,2013-07-18 11:35:00
6:55 AM,75.6,72.5,90,30.12,7.0,Calm,Calm,-,0.01,,Clear,0,2013-07-18 11:55:00
7:15 AM,76.1,72.9,90,30.12,7.0,Calm,Calm,-,N/A,,Clear,0,2013-07-18 12:15:00
7:35 AM,76.3,72.7,89,30.12,10.0,NNE,3.5,-,N/A,,Clear,30,2013-07-18 12:35:00
7:55 AM,77.2,73.2,88,30.12,10.0,Calm,Calm,-,N/A,,Clear,0,2013-07-18 12:55:00
8:15 AM,78.1,73.6,86,30.13,10.0,NNE,3.5,-,N/A,,Clear,20,2013-07-18 13:15:00
8:35 AM,79.3,73.8,83,30.13,10.0,NE,4.6,-,0.01,,Clear,40,2013-07-18 13:35:00
8:55 AM,81.1,74.3,80,30.14,10.0,ENE,4.6,-,0.01,,Clear,70,2013-07-18 13:55:00
9:15 AM,82.9,73.9,74,30.14,10.0,ENE,5.8,-,N/A,,Scattered Clouds,70,2013-07-18 14:15:00
9:35 AM,84.4,73.4,69,30.13,10.0,ESE,4.6,-,N/A,,Scattered Clouds,110,2013-07-18 14:35:00
9:55 AM,85.1,72.9,67,30.13,10.0,East,5.8,-,0.01,,Mostly Cloudy,100,2013-07-18 14:55:00
10:15 AM,86.2,72.1,63,30.14,10.0,East,3.5,-,N/A,,Scattered Clouds,80,2013-07-18 15:15:00
10:35 AM,86.4,71.6,61,30.14,10.0,East,4.6,-,N/A,,Scattered Clouds,80,2013-07-18 15:35:00
10:55 AM,87.6,70.9,57,30.14,10.0,East,3.5,-,0.01,,Scattered Clouds,90,2013-07-18 15:55:00
11:15 AM,88.9,68.0,50,30.14,10.0,SE,6.9,-,N/A,,Clear,130,2013-07-18 16:15:00
11:35 AM,90.1,68.7,49,30.13,10.0,ESE,3.5,-,N/A,,Clear,110,2013-07-18 16:35:00
11:55 AM,91.2,66.9,45,30.13,10.0,Calm,Calm,-,N/A,,Scattered Clouds,0,2013-07-18 16:55:00
12:15 PM,91.4,66.7,44,30.12,10.0,ESE,8.1,-,0.01,,Scattered Clouds,110,2013-07-18 17:15:00
12:35 PM,90.5,67.5,47,30.12,10.0,East,4.6,-,0.01,,Clear,90,2013-07-18 17:35:00
12:55 PM,91.6,66.9,44,30.11,10.0,East,4.6,-,0.01,,Clear,90,2013-07-18 17:55:00
1:15 PM,93.4,66.6,41,30.10,10.0,SSE,8.1,-,N/A,,Clear,150,2013-07-18 18:15:00
1:35 PM,93.9,66.6,40,30.08,10.0,East,4.6,-,0.01,,Clear,80,2013-07-18 18:35:00
1:55 PM,94.3,67.5,41,30.08,10.0,East,8.1,-,0.01,,Clear,80,2013-07-18 18:55:00
2:15 PM,94.1,66.0,39,30.06,10.0,South,3.5,-,N/A,,Clear,170,2013-07-18 19:15:00
2:35 PM,94.3,66.0,39,30.05,10.0,ESE,4.6,-,N/A,,Clear,120,2013-07-18 19:35:00
2:55 PM,95.4,65.8,38,30.04,10.0,ESE,3.5,-,N/A,,Clear,110,2013-07-18 19:55:00
3:15 PM,96.1,65.8,37,30.03,10.0,ESE,8.1,-,N/A,,Clear,110,2013-07-18 20:15:00
3:35 PM,96.3,65.7,36,30.02,10.0,SSE,9.2,-,0.01,,Clear,150,2013-07-18 20:35:00
3:55 PM,89.6,74.5,61,30.02,10.0,South,13.8,21.9,0.01,,Scattered Clouds,180,2013-07-18 20:55:00
4:15 PM,90.3,74.3,59,30.01,10.0,South,11.5,-,N/A,,Clear,180,2013-07-18 21:15:00
5:15 PM,88.2,75.7,67,30.01,7.0,South,17.3,26.5,N/A,Rain,Light Rain,170,2013-07-18 22:15:00
5:35 PM,85.6,74.7,70,30.01,10.0,ESE,10.4,18.4,N/A,Thunderstorm,Scattered Clouds,120,2013-07-18 22:35:00
5:55 PM,81.7,75.0,80,30.00,10.0,ESE,5.8,-,0.01,Rain,Light Rain,120,2013-07-18 22:55:00
6:15 PM,84.9,78.6,81,29.99,10.0,Calm,Calm,-,0.01,,Mostly Cloudy,0,2013-07-18 23:15:00
6:35 PM,87.8,76.8,70,29.98,10.0,South,4.6,-,0.01,,Scattered Clouds,170,2013-07-18 23:35:00
6:55 PM,87.8,76.5,69,29.98,10.0,South,3.5,-,0.02,,Clear,180,2013-07-18 23:55:00
7:15 PM,87.8,77.9,72,29.99,10.0,Calm,Calm,-,N/A,,Clear,0,2013-07-19 00:15:00
7:35 PM,87.3,78.1,74,29.99,10.0,SSE,5.8,-,0.01,,Clear,160,2013-07-19 00:35:00
7:55 PM,86.5,77.4,74,30.00,10.0,South,4.6,-,0.01,,Clear,180,2013-07-19 00:55:00
8:15 PM,85.3,77.0,76,30.00,10.0,Calm,Calm,-,N/A,,Clear,0,2013-07-19 01:15:00
8:35 PM,84.2,76.5,77,30.00,10.0,South,4.6,-,N/A,,Clear,190,2013-07-19 01:35:00
8:55 PM,83.3,76.6,80,30.01,10.0,SSE,4.6,-,N/A,,Clear,160,2013-07-19 01:55:00
9:15 PM,82.4,76.5,82,30.01,10.0,SSE,3.5,-,N/A,,Clear,160,2013-07-19 02:15:00
9:35 PM,81.5,76.6,85,30.01,10.0,Calm,Calm,-,N/A,,Clear,0,2013-07-19 02:35:00
9:55 PM,80.6,76.1,86,30.01,10.0,Calm,Calm,-,N/A,,Clear,0,2013-07-19 02:55:00
10:15 PM,80.4,75.7,86,30.02,10.0,South,3.5,-,N/A,,Clear,190,2013-07-19 03:15:00
10:35 PM,79.9,75.6,87,30.04,10.0,Calm,Calm,-,N/A,,Clear,0,2013-07-19 03:35:00
10:55 PM,79.3,75.2,87,30.04,10.0,Calm,Calm,-,N/A,,Clear,0,2013-07-19 03:55:00
11:15 PM,79.2,75.0,87,30.04,10.0,Calm,Calm,-,N/A,,Clear,0,2013-07-19 04:15:00
11:35 PM,78.8,75.2,89,30.04,10.0,Calm,Calm,-,N/A,,Clear,0,2013-07-19 04:35:00
11:55 PM,78.8,74.8,88,30.04,10.0,Calm,Calm,-,N/A,,Clear,0,2013-07-19 04:55:00